Flag for Germany Weather past 2 weeks in Stendal, Saxony-Anhalt, Germany

Now
43 °F

Overcast.


Feels Like: 42 °F
Forecast: 35 / 52 °F
Wind: 3 mph from West

Location: Magdeburg

Current Time: Mar 6, 2015 at 2:14:38 PM

Latest Report: Mar 6, 2015 at 1:00 PM


Visibility: 9 mi

Pressure: 30.56 "Hg

Humidity: 75%

Dew point: 36 °F

Location of StendalLocation

Historic Weather in Stendal — Graph

°F

Stendal temperature yesterday

Maximum temperature yesterday: 44 °F (at 4:00 PM)
Minimum temperature yesterday: 36 °F (at 8:00 AM)
Average temperature yesterday: 40 °F

Past Weeks' High & Low Weather Summary

 TemperatureHumidityPressure
High49 °F (Feb 20, 4:00 PM)97% (Feb 23, 11:00 AM)30.58 "Hg (Feb 23, 11:00 AM)
Low26 °F (Feb 20, 5:00 AM)49% (Feb 26, 5:00 PM)29.38 "Hg (Feb 21, 11:00 AM)
Average39 °F77%29.92 "Hg
* Reported Feb 19 1:00 PM — Mar 6 1:00 PM, Stendal, Weather by CustomWeather, © 2015

Note: Actual official high and low records may vary slightly from our data, if they occured in-between our weather recording intervals... More about our weather records

Advertising

Stendal weather history for previous 24 hours

 ConditionsComfort  
Time TempWeatherWind HumidityBarometerVisibility
1:00 PM
Fri, Mar 6
43 °FOvercast.3 mph75%30.56 "Hg9 mi
12:00 PM43 °FOvercast.5 mph75%30.57 "Hg10 mi
11:00 AM42 °FOvercast.5 mph76%30.57 "Hg12 mi
10:00 AM42 °FOvercast.3 mph78%30.57 "Hg11 mi
9:00 AM41 °FOvercast.3 mph78%30.57 "Hg11 mi
8:00 AM40 °FOvercast.2 mph83%30.56 "Hg9 mi
7:00 AM40 °FOvercast.2 mph83%30.56 "Hg9 mi
6:00 AM40 °FOvercast.3 mph83%30.57 "Hg9 mi
5:00 AM39 °FPassing clouds.2 mph83%30.56 "Hg9 mi
4:00 AM40 °FOvercast.2 mph83%30.56 "Hg11 mi
3:00 AM40 °FOvercast.2 mph82%30.56 "Hg12 mi
2:00 AM40 °FOvercast.2 mph84%30.58 "Hg12 mi
1:00 AM40 °FOvercast.2 mph81%30.57 "Hg13 mi
12:00 AM40 °FOvercast.2 mph83%30.58 "Hg11 mi
9:00 PM
Thu, Mar 5
40 °FPassing clouds.2 mph82%30.57 "Hg19 mi
8:00 PM40 °FPassing clouds.2 mph83%30.57 "Hg16 mi
7:00 PM41 °FOvercast.2 mph85%30.57 "Hg16 mi
6:00 PM42 °FSprinkles. Overcast.3 mph83%30.56 "Hg12 mi
5:00 PM42 °FOvercast.2 mph84%30.55 "Hg25 mi
4:00 PM44 °FOvercast.2 mph74%30.54 "Hg25 mi
3:00 PM42 °FOvercast.3 mph82%30.54 "Hg22 mi
2:00 PM44 °FOvercast.3 mph75%30.53 "Hg22 mi
Weather by CustomWeather, © 2015

See weather overviewHow to use our weather pages